Regional Weather Roundup
Issued by NWS

Home | Current Version | Previous Version | Text Only | Print | Product List | Glossary Off
Versions: 1 2 3 4 5 6 7 8 9 10 11 12 13 14 15 16 17 18 19 20 21 22 23 24 25 26 27 28 29 30 31 32 33 34 35 36 37 38 39 40 41 42 43 44 45 46 47 48 49 50

072
ASUS43 KMPX 220501
RWRMN
WEATHER ROUNDUP FOR MINNESOTA
NATIONAL WEATHER SERVICE TWIN CITIES/CHANHASSEN MN
1100 PM CST TUE NOV 21 2017


NOTE: "FAIR" INDICATES FEW OR NO CLOUDS BELOW 12,000 FEET WITH NO
SIGNIFICANT WEATHER AND/OR OBSTRUCTIONS TO VISIBILITY. N/A MEANS
CURRENT SKY AND/OR WEATHER CONDITIONS ARE NOT AVAILABLE.

MNZ060>063-068>070-220600-
   Twin Cities Metro

CITY           SKY/WX    TMP DP  RH WIND       PRES   REMARKS
TWIN CITIES    CLOUDY    19  11  70 NW10      30.32R WCI   7
ST PAUL        CLOUDY    19  10  68 NW10      30.33R WCI   7
CRYSTAL        CLOUDY    18   8  65 NW13      30.31R WCI   5
BLAINE         CLOUDY    19  12  73 W9        30.31R WCI   9
LAKEVILLE      CLOUDY    18  10  73 NW13      30.31R WCI   4
EDEN PRAIRIE   CLOUDY    20  10  65 NW10      30.31R WCI   9
SOUTH ST PAUL  CLOUDY    20  10  66 NW9       30.31S WCI   9
LAKE ELMO      FAIR      19  12  73 NW6       30.31S WCI  11
$$
MNZ001>005-007-008-013>017-022>024-027-028-220600-
   Northwest Minnesota

CITY           SKY/WX    TMP DP  RH WIND       PRES   REMARKS
BEMIDJI        CLOUDY    10   7  87 W8        30.27R WCI  -2
HALLOCK        CLOUDY     7   3  85 SW6       30.29R WCI  -3
ROSEAU         CLOUDY    12   9  85 W7        30.26S WCI   2
WARROAD        CLOUDY    10   7  85 SW7       30.26R WCI   0
CROOKSTON      CLOUDY    10   7  85 SW5       30.32F WCI   2
FOSSTON        CLOUDY     9   7  92 W5        30.30R WCI   0
DETROIT LAKES  CLOUDY    14  10  85 W6        30.32R WCI   5
MOORHEAD       CLOUDY    10   7  85 CALM      30.36R
PARK RAPIDS    CLOUDY    10   5  80 W6        30.28R WCI   0
MAHNOMEN       FAIR      11   8  87 W7        30.30S WCI   0
$$
MNZ006-009>011-018-025>026-220600-
   North Central Minnesota

CITY           SKY/WX    TMP DP  RH WIND       PRES   REMARKS
BAUDETTE       CLOUDY    10   6  84 W6        30.23R WCI   0
FLAG ISLAND    CLOUDY    10   7  85 W10       30.23R WCI  -3
INTL FALLS       N/A     10   5  80 W5        30.22R WCI   2
WASKISH        CLOUDY    14  10  85 W10       30.27R WCI   1
BIG FORK       CLOUDY     9   7  92 CALM      30.25R
LONGVILLE      CLOUDY    12   9  85 W5        30.27R WCI   4
GRAND RAPIDS   CLOUDY    14  10  84 NW8       30.27R WCI   3
CRANE LAKE     FLURRIES  16  10  79 W6        30.24R WCI   7
ORR            CLEAR     10   7  85 W3        30.20R
COOK           FLURRIES  12   9  85 CALM      30.22S
WALKER         FAIR      11   7  85 W6        30.28R WCI   1
$$
MNZ012-019>021-037-220600-
   Northeast Minnesota

CITY           SKY/WX    TMP DP  RH WIND       PRES   REMARKS
DULUTH         FLURRIES  15   9  76 NW9       30.21S WCI   3
ELY            FLURRIES  12  10  92 W5        30.19R WCI   4
HIBBING        CLEAR     13   7  77 W7        30.23S WCI   3
EVELETH        FLURRIES  15   8  74 W7        30.23S WCI   5
DULUTH HARBOR  CLEAR     19  12  73 W6        30.29S WCI  11
TWO HARBORS    CLEAR     19  10  68 W6        30.20S WCI  11
SILVER BAY     CLEAR     18  10  73 CALM      30.18S
GRAND MARAIS     N/A     22  14  71 SW9       30.18S WCI  12
G MARAIS ARPRT CLOUDY    14   7  73 NW6       30.11R WCI   5
$$
MNZ029>031-032-039>041-046>048-054>057-064-220600-
   West Central Minnesota

CITY           SKY/WX    TMP DP  RH WIND       PRES   REMARKS
FERGUS FALLS   CLOUDY    10   7  85 NW5       30.38R WCI   2
WHEATON        CLEAR     12   7  79 SW3       30.38R
MORRIS         CLOUDY    12   9  85 W6        30.34R WCI   3
ALEXANDRIA     CLOUDY    15  10  80 NW7       30.31R WCI   5
ELBOW LAKE     FAIR      12   9  85 W7        30.34R FOG     WCI   2
WADENA         CLOUDY    10   7  85 W3        30.30R
GLENWOOD       CLOUDY    14  10  85 W5        30.32S WCI   6
APPLETON         N/A     16   9  73 W5        30.36R WCI   9
BENSON         CLOUDY    12   9  85 NW5       30.36R WCI   4
ORTONVILLE     CLOUDY    16   9  73 MISG      30.36R
MADISON        CLOUDY    14   9  79 W6        30.37R WCI   5
WILLMAR        FAIR      18  12  79 NW7       30.34S WCI   8
$$
MNZ033>034-036-042>043-049>051-058-059-220600-
   Central Minnesota

CITY           SKY/WX    TMP DP  RH WIND       PRES   REMARKS
ST CLOUD       CLOUDY    14   9  80 NW7       30.31S WCI   4
SAUK CENTRE    FAIR      15  10  82 CALM      30.32S
PAYNESVILLE    CLOUDY    16  12  84 NW3       30.33R
AITKIN         CLOUDY    12   7  79 W3        30.27R
PINE RIVER     CLOUDY    10   7  85 CALM      30.31R
BRAINERD       PTCLDY    16   9  74 NW7       30.29S WCI   6
STAPLES        CLOUDY     9   7  92 W5        30.30R WCI   0
LONG PRAIRIE   FAIR      14   9  79 W3        30.30S
LITTLE FALLS   CLOUDY    14   5  67 CALM      30.32R
LITCHFIELD     CLOUDY    18  12  79 NW8       30.33R WCI   7
BUFFALO        CLOUDY    17  10  72 NW7       30.33S WCI   8
MAPLE LAKE     CLOUDY    18  12  79 NW6       30.33S WCI   9
HUTCHINSON     CLOUDY    19  13  76 NW8       30.33S WCI   9
$$
MNZ037-044-045-052-053-220600-
   East Central Minnesota

CITY           SKY/WX    TMP DP  RH WIND       PRES   REMARKS
PRINCETON      CLOUDY    16  10  79 CALM      30.30S
MORA           CLOUDY    18  10  73 N3        30.31S
CAMBRIDGE      CLOUDY    18   9  68 NW3       30.30S
RUSH CITY      MOCLDY    16   9  73 N6        30.30S WCI   7
MOOSE LAKE     CLOUDY    19  10  68 NW5       30.26S WCI  13
HINCKLEY       CLOUDY    19  12  73 NW3       30.29R
CLOQUET        CLOUDY    18   9  68 NW8       30.24S WCI   7
MCGREGOR       CLOUDY    19  10  68 NW12      30.27S WCI   7
$$
MNZ071>073-080-081-089-090-097-098-220600-
   Southwest Minnesota

CITY           SKY/WX    TMP DP  RH WIND       PRES   REMARKS
MONTEVIDEO     CLOUDY    16   9  73 NW5       30.36S WCI   9
GRANITE FALLS  CLOUDY    14  10  83 W5        30.38R WCI   6
CANBY          CLOUDY    14   9  80 NW6       30.37S WCI   5
MARSHALL       CLOUDY    13   7  77 W8        30.36R WCI   2
REDWOOD FALLS  CLOUDY    18   9  68 NW6       30.35R WCI  10
OLIVIA         CLOUDY    18  12  79 NW5       30.34R WCI  11
PIPESTONE      CLOUDY    12   7  79 W3        30.34R
WINDOM           N/A     16   3  57 W7        30.33R WCI   6
WORTHINGTON    CLOUDY    14   6  70 NW9       30.33S WCI   2
JACKSON        CLOUDY    18   9  68 CALM      30.32S
SLAYTON        CLOUDY    14   8  76 NW7       30.33R WCI   4
$$
MNZ065>067-074>077-082>085-091>093-220600-
   South Central Minnesota

CITY           SKY/WX    TMP DP  RH WIND       PRES   REMARKS
NEW ULM        CLOUDY    18   9  68 CALM      30.33S
ST JAMES       CLOUDY    18  10  73 W7        30.35S WCI   8
FAIRMONT       CLOUDY    19  10  68 NW12      30.34R WCI   7
GLENCOE        CLOUDY    20  13  77 NW7       30.32R WCI  11
FARIBAULT      CLOUDY    18  12  79 NW6       30.31R WCI   9
OWATONNA       CLOUDY    18  12  79 NW9       30.30S WCI   6
WASECA         CLOUDY    19  12  73 NW7       30.33R WCI  10
ALBERT LEA     CLOUDY    19  10  68 NW10      30.30R WCI   8
$$
MNZ078>079-086>088-094>096-220600-
   Southeast Minnesota

CITY           SKY/WX    TMP DP  RH WIND       PRES   REMARKS
ROCHESTER      CLOUDY    18  12  77 NW12      30.26S WCI   5
RED WING       CLEAR     19   9  63 NW3       30.30R
STANTON        CLOUDY    20  12  70 NW6       30.30S WCI  12
DODGE CENTER   PTCLDY    18  10  73 NW9       30.27S WCI   6
WINONA           N/A     23  12  63 NW10      30.30R WCI  12
AUSTIN         CLOUDY    19  12  73 NW9       30.28R WCI   9
PRESTON        CLEAR     19  11  73 NW9       30.27R WCI   7
$$
ABBREVIATIONS USED IN REMARKS
   TC - TEMPERATURES IN CELSIUS
  WCI - WIND CHILL INDEX
   HX - HEAT INDEX
  VSB - VISIBILITY
$$




USA.gov is the U.S. government's official web portal to all federal, state and local government web resources and services.